OpenBCM V1.13 (Linux)

Packet Radio Mailbox

DB0FHN

[JN59NK Nuernberg]

 Login: GUEST





  
LU9DCE > KEP      17.06.19 20:33l 251 Lines 12323 Bytes #-2512 (0) @ WW
BID : 27058_LU9DCE
Read: DJ6UX GUEST DF7EAV
Subj: TLE 17 06
Path: DB0FHN<DB0BLO<DB0ERF<OK0NAG<IK6ZDE<I0OJJ<LU9DCE
Sent: 190617/1800Z 27058@LU9DCE.TOR.BA.ARG.SOAM LinBPQ6.0.18

>From lu9dce%lu9dce.tor.ba.arg.soam@i0ojj.ampr.org Mon Jun 17 20:01:44 2019
Received: from i0ojj.ampr.org by i0ojj.ampr.org (JNOS2.0k.3b) with SMTP
	id AA13903 ; Mon, 17 Jun 2019 20:01:44 +0200
Message-Id: <27058_lu9dce@lu9dce.bbs>
>From: lu9dce@lu9dce.tor.ba.arg.soam
X-JNOS-User-Port: Circuit  (X-YORK:VE3CGR-8 LU9DCE)  -> Sending message

            __    _  _  ___  ____   ___  ____    ____  ____  ____
           (  )  / )( \/ _ \(    \ / __)(  __)  (  _ \(  _ \/ ___)
           / (_/\) \/ (\__  )) D (( (__  ) _)    ) _ ( ) _ (\___ \
           \____/\____/(___/(____/ \___)(____)  (____/(____/(____/
               ESTACION DE PACKET RADIO - BUENOS AIRES (GF05OM)
                   BOLETINES INFORMATIVOS PROGRAMADOS (BIP)
                  SLACKWARE LINUX - HELLOCODELINUX@GMAIL.COM

+----------------------------------------------------------------------------+
OSCAR 7
1  7530U 74089B   19168.19133433 -.00000052  00000-0 -45154-4 0  9997
2  7530 101.7435 135.8675 0012198 352.3542  78.3499 12.53638460 40336
OSCAR 11 (UoSAT 2)
1 14781U 84021B   19167.94598651 +.00000029 +00000-0 +97073-5 0  9999
2 14781 097.6106 192.7474 0007696 335.4492 024.6355 14.83090429877506
OSCAR 19 (LUSAT)
1 20442U 90005G   19167.78380824 -.00000010  00000-0  12786-4 0  9990
2 20442  98.6486 109.7868 0012262 150.0462 210.1426 14.32927022536108
EYESAT A
1 22825U 93061C   19168.52039120 -.00000021  00000-0  98769-5 0  9993
2 22825  98.9028 157.1305 0008560  10.2936 349.8419 14.30060553341787
ITAMSAT
1 22826U 93061D   19168.52233007 -.00000012  00000-0  13292-4 0  9991
2 22826  98.8968 157.1241 0008848 358.8471   1.2689 14.30394174341982
RADIO ROSTO
1 23439U 94085A   19167.91967402 -.00000047 +00000-0 -14175-3 0  9993
2 23439 064.8154 118.9899 0146213 113.5609 248.0749 11.27568080007692
JAS 2
1 24278U 96046B   19168.44031951 -.00000049  00000-0 -11950-4 0  9995
2 24278  98.5367 322.0209 0349361 243.1860 113.3156 13.53091931127635
TECHSAT 1B
1 25397U 98043D   19167.79220416 -.00000033 +00000-0 +45898-5 0  9991
2 25397 098.6888 107.9592 0002258 063.7363 296.4048 14.23666577087389
ISS (ZARYA)
1 25544U 98067A   19168.50076197  .00001058  00000-0  25585-4 0  9993
2 25544  51.6446 359.7394 0008241  59.1754 354.5298 15.51207823175300
PCSAT
1 26931U 01043C   19167.89265693 -.00000032 +00000-0 +19457-4 0  9997
2 26931 067.0517 008.3232 0006635 279.1525 080.8826 14.30544694924645
SAUDISAT 1C
1 27607U 02058C   19167.92009469 -.00000044 +00000-0 +14822-4 0  9990
2 27607 064.5559 055.0135 0081414 256.8739 102.3269 14.75552551886640
CUTE-1
1 27844U 03031E   19167.96448163 +.00000033 +00000-0 +34679-4 0  9996
2 27844 098.6834 176.2040 0010654 042.0133 318.1860 14.22181216828007
CUBESAT XI 4
1 27848U 03031J   19167.95612839 +.00000024 +00000-0 +30927-4 0  9994
2 27848 098.6911 176.6955 0010701 052.4648 307.7500 14.21775900827861
MOZHAYETS 4
1 27939U 03042A   19168.47911676  .00000008  00000-0  99844-5 0  9992
2 27939  98.0405 304.3189 0014292  73.7649 286.5123 14.66784534840366
CUBESAT XI 5
1 28895U 05043F   19168.34622090  .00000060  00000-0  20386-4 0  9994
2 28895  97.9589 311.1233 0016655   1.0323 359.0912 14.63668128727287
CUTE-1.7+APD II
1 32785U 08021C   19168.47530528  .00000146  00000-0  21354-4 0  9995
2 32785  97.5491 168.2471 0011467 266.9693  93.0212 14.88310293603501
DELFI C3
1 32789U 08021G   19167.89163881 +.00001292 +00000-0 +90292-4 0  9998
2 32789 097.4641 217.6118 0013670 127.6154 232.6317 15.06946925606598
SEEDS
1 32791U 08021J   19168.49583053  .00000333  00000-0  39177-4 0  9995
2 32791  97.5275 174.2393 0011927 238.4707 121.5348 14.90820212603933
YUBELEINY
1 32953U 08025A   19168.43734269  .00000021  00000-0  75656-4 0  9996
2 32953  82.4994 145.5448 0020151 128.9872 231.3013 12.43090035502150
PRISM (HITOMI)
1 33493U 09002B   19167.72349789 +.00000826 +00000-0 +77850-4 0  9993
2 33493 098.1223 088.6035 0014916 183.9105 176.2001 14.96649892564849
KKS-1 (KISEKI)
1 33499U 09002H   19168.18278359  .00000053  00000-0  15825-4 0  9990
2 33499  98.3502   6.8427 0008535 204.1342 155.9467 14.75441489559004
SWISSCUBE
1 35932U 09051B   19167.94791539 +.00000078 +00000-0 +28673-4 0  9993
2 35932 098.5876 333.8697 0008016 162.2193 197.9286 14.56284542516482
BEESAT
1 35933U 09051C   19168.15710241  .00000062  00000-0  24906-4 0  9997
2 35933  98.5903 335.8427 0005951 171.5503 188.5795 14.56373738516667
ITUPSAT 1
1 35935U 09051E   19168.14514750  .00000061  00000-0  25167-4 0  9994
2 35935  98.6014 336.0686 0008281 172.1456 187.9871 14.55533963516414
XIWANG-1 (HOPE-1)
1 36122U 09072B   19168.51966539 -.00000021  00000-0  54639-4 0  9996
2 36122 100.0722 170.9555 0007438 355.0232   5.0812 13.16349970456725
TISAT 1
1 36799U 10035E   19168.07176719  .00000078  00000-0  14036-4 0  9999
2 36799  98.1555 320.1702 0013749  91.6969 268.5823 14.91101984484523
JUGNU
1 37839U 11058B   19166.92066208  .00000295  00000-0  15431-4 0  9995
2 37839  19.9628 351.5820 0018898 296.3592 181.5140 14.12652329396868
SRMSAT
1 37841U 11058D   19167.04090660  .00000279  00000-0  80433-5 0  9998
2 37841  19.9733  47.5692 0011904 167.4764 332.5941 14.10633414396316
M-CUBED/EXP-1 PRIME
1 37855U 11061F   19168.27068121  .00000913  00000-0  53414-4 0  9993
2 37855 101.7149  63.1406 0173780  80.9952 281.0882 15.05406610416561
HORYU 2
1 38340U 12025D   19167.94824602 +.00000120 +00000-0 +25531-4 0  9990
2 38340 098.3289 206.4871 0012691 126.2809 233.9574 14.75718700370490
STRAND 1
1 39090U 13009E   19167.83389438  .00000025  00000-0  24176-4 0  9995
2 39090  98.4886  13.8242 0008061 298.8206  61.2170 14.35087108330129
SOMP
1 39134U 13015E   19167.91260641 +.00000755 +00000-0 +43887-4 0  9994
2 39134 064.8638 026.2031 0030210 303.0491 056.7735 15.20149748339949
BEESAT 3
1 39135U 13015F   19167.83162126 +.00000691 +00000-0 +44119-4 0  9993
2 39135 064.8693 044.7355 0020692 322.7881 037.1810 15.17459441339575
BEESAT 2
1 39136U 13015G   19167.86791770 +.00000609 +00000-0 +40699-4 0  9998
2 39136 064.8701 048.4358 0019193 301.5148 058.4102 15.16887394339509
CUBEBUG 1
1 39153U 13018D   19168.27634639  .00000104  00000-0  20493-4 0  9996
2 39153  97.9782 266.4091 0016546 198.4564 161.6050 14.80566009331603
ZACUBE
1 39417U 13066B   19167.94855492 +.00000147 +00000-0 +24748-4 0  9991
2 39417 097.5621 181.5484 0060015 040.9606 319.6093 14.81113674300789
TRITON 1
1 39427U 13066M   19168.50107646  .00000140  00000-0  30232-4 0  9994
2 39427  97.6757 145.9529 0114045 168.5320 191.8525 14.67839245298169
GOMX 1
1 39430U 13066Q   19168.38818086  .00000136  00000-0  34117-4 0  9992
2 39430  97.7462 125.0263 0149696 258.4328 100.0056 14.59251820296413
HUMSAT D
1 39433U 13066T   19168.27259881  .00000454  00000-0  49687-4 0  9996
2 39433  97.5536 215.8366 0029383 307.3009  52.5532 14.92188240302867
CUBEBUG 2
1 39440U 13066AA  19168.53083229  .00000141  00000-0  26390-4 0  9993
2 39440  97.6016 167.0364 0081904  88.7847 272.2745 14.75852093299803
FUNCUBE 1
1 39444U 13066AE  19168.55776504  .00000189  00000-0  29558-4 0  9995
2 39444  97.5603 184.0678 0058951  33.0167 327.4705 14.81932140299762
UWE-3
1 39446U 13066AG  19167.58937375  .00000137  00000-0  24771-4 0  9999
2 39446  97.5808 173.1700 0071547  67.4881 293.3885 14.78386222298956
SPROUT
1 39770U 14029E   19168.21873927  .00000530  00000-0  64747-4 0  9996
2 39770  97.8843 271.5214 0010382  91.0604 269.1786 14.87336428274618
UNISAT 6
1 40012U 14033C   19168.18231857  .00000135  00000-0  27456-4 0  9995
2 40012  97.7580  34.8595 0059805 102.3742 258.4169 14.73976163268463
DUCHIFAT 1
1 40021U 14033M   19167.79875714  .00000350  00000-0  41537-4 0  9992
2 40021  97.9243  92.3861 0014315  59.4099 300.8529 14.90624815271267
QB50P1
1 40025U 14033R   19167.81855006  .00000145  00000-0  21444-4 0  9998
2 40025  97.9064  87.5058 0013903  68.0039 292.2653 14.88940028271040
CHUBUSAT 1
1 40300U 14070C   19168.40523168  .00000397  00000-0  20244-4 0  9998
2 40300  97.3277 242.6218 0021340  61.1951 355.7040 15.22079772255820
NUDT-PHONESAT
1 40900U 15049B   19168.47258509  .00001438  00000-0  64525-4 0  9999
2 40900  97.4360 177.8197 0012755 181.1546 337.1223 15.22765244207479
ZDPS 2A
1 40901U 15049C   19168.36107098  .00000507  00000-0  28468-4 0  9996
2 40901  97.4590 174.2040 0012672 201.0825 266.3843 15.17714423207033
ZDPS 2B
1 40902U 15049D   19168.58585959  .00000762  00000-0  41280-4 0  9997
2 40902  97.4530 171.9406 0012729 197.3457 280.2091 15.17527965207043
XW-2A
1 40903U 15049E   19168.41660697  .00001385  00000-0  34617-4 0  9991
2 40903  97.3384 211.1735 0014584 143.6620 312.3857 15.41829320210058
KAITUO 1A
1 40904U 15049F   19168.55575140  .00000427  00000-0  26125-4 0  9996
2 40904  97.4658 170.5834 0013511 206.3422 306.7063 15.15358783206825
OBJECT G
1 40905U 15049G   19167.69308596 -.00000065  00000-0  13381-7 0  9992
2 40905  97.4700 167.2952 0014744 204.3914 215.5655 15.14283252206574
XW-2C
1 40906U 15049H   19168.41638609  .00000488  00000-0  29094-4 0  9998
2 40906  97.4666 170.5159 0013818 197.7575 268.4939 15.15666125206804
XW-2D
1 40907U 15049J   19168.52820082  .00000623  00000-0  35969-4 0  9998
2 40907  97.4644 170.3039 0013502 193.9773 283.2752 15.15854472206839
LILACSAT 2
1 40908U 15049K   19168.54162838  .00000551  00000-0  34101-4 0  9996
2 40908  97.4780 169.1786 0014877 201.8643 279.2325 15.13798565206634
XW-2F
1 40910U 15049M   19168.42879130  .00000600  00000-0  33442-4 0  9998
2 40910  97.4615 172.1788 0014363 187.4034 308.7431 15.17279539206829
XW-2B
1 40911U 15049N   19168.43253506  .00000309  00000-0  19662-4 0  9997
2 40911  97.4666 170.8561 0013430 195.0805 302.6204 15.15782059206718
